Regional Weather Roundup
Issued by NWS

Home | Current Version | Previous Version | Text Only | Print | Product List | Glossary On
Versions: 1 2 3 4 5 6 7 8 9 10 11 12 13 14 15 16 17 18 19 20 21 22 23 24 25 26 27 28 29 30 31 32 33 34 35 36 37 38 39 40 41 42 43 44 45 46 47 48 49 50
000
ASUS46 KSEW 241110
RWRWA

WASHINGTON REGIONAL WEATHER ROUNDUP
NATIONAL WEATHER SERVICE SEATTLE WA
400 AM PDT MON JUL 24 2017

NOTE:"FAIR" INDICATES FEW OR NO CLOUDS BELOW 12,000 FEET WITH NO
SIGNIFICANT WEATHER AND/OR OBSTRUCTIONS TO VISIBILITY.

WAZ507-509-555>559-241200-
SEATTLE, TACOMA, EVERETT, AND VICINITY

CITY           SKY/WX    TMP DP  RH WIND       PRES   REMARKS
EVERETT        CLEAR     55  52  89 NW6       30.04S
BOEING FIELD   CLEAR     59  54  83 CALM      30.03S
RENTON         CLEAR     61  54  77 NW5       30.03R
SEATAC AIRPORT CLEAR     60  52  74 NE5       30.04S
JBLM-MCCHORD   CLEAR     58  55  89 CALM      30.03S
PUYALLUP       FAIR      54  54 100 CALM      30.03S
BREMERTON      FOG       46  45  93 CALM      30.04S VSB 3/4
JBLM-FT LEWIS  CLEAR     56  56  99 CALM      30.03R
TACOMA NARROWS CLEAR     53  51  93 CALM      30.03F
$$

WAZ001-503-506-510-514-515-241200-
NORTH INTERIOR

CITY           SKY/WX    TMP DP  RH WIND       PRES   REMARKS
BELLINGHAM     CLEAR     53  52  96 CALM      30.02S
FRIDAY HARBOR  CLEAR     52  51  97 NW3       30.04F
EASTSOUND      CLEAR     61  55  82 NW6       30.04S
PORT ANGELES   CLEAR     50  48  93 CALM      30.05S
EDIZ HOOK      FAIR      50  49  95 S5        30.05S
PORT TOWNSEND  FAIR      48  46  93 CALM      30.04S
NAS WHIDBEY    CLEAR     52  47  83 E3        30.07F
ARLINGTON      CLEAR     51  50  96 CALM      30.04S
BURLINGTON     CLEAR     57  54  88 W5        30.03F
$$

WAZ020-022-039-040-504-511-512-241200-
SOUTHWEST INTERIOR

CITY           SKY/WX    TMP DP  RH WIND       PRES   REMARKS
SHELTON        CLEAR     54  51  90 W3        30.02S
OLYMPIA        CLEAR     56  53  90 N5        30.03S
CHEHALIS       FAIR      52  52 100 CALM      30.03S
KELSO          CLEAR     57  52  83 N6        30.01F
VANCOUVER      CLEAR     60  54  80 N5        29.97S
SCAPPOOSE, OR  CLEAR     59  51  75 MISG      29.97S
PORTLAND, OR   CLEAR     59  53  80 NW3       29.97F
$$

WAZ021-516-517-241200-
WASHINGTON COAST

CITY           SKY/WX    TMP DP  RH WIND       PRES   REMARKS
FORKS          CLEAR     47  46  97 CALM      30.04S
HOQUIAM        CLOUDY    53  52  96 CALM      30.05S FOG
ASTORIA, OR    CLOUDY    54  51  90 CALM      30.03S
$$

WAZ019-023-024-040-567>569-241200-
CASCADE MOUNTAINS AND COLUMBIA GORGE

CITY           SKY/WX    TMP DP  RH WIND       PRES   REMARKS
STAMPEDE PASS  FOG       51  50  96 VRB5      30.07F VSB 1/4
TROUTDALE, OR  CLEAR     57  52  83 CALM      29.97S
HOOD RIVER, OR SUNNY     59  54  82 CALM      29.91R
THE DALLES, OR CLEAR     69  56  62 W7        29.88R
$$

WAZ026-027-041>044-520-521-241200-
EAST SLOPES

CITY           SKY/WX    TMP DP  RH WIND       PRES   REMARKS
OMAK           CLEAR     66  38  35 N17G31    29.99R
WENATCHEE      CLEAR     64  44  48 NW7       29.96R
ELLENSBURG     CLEAR     57  45  64 N8        29.97R
YAKIMA         CLEAR     64  45  49 NW7       29.94R
SUNNYSIDE ARPT   N/A     57  47  71 CALM      29.91R
YAKIMA TC      FAIR      64  42  45 E13       29.93R
$$

WAZ028-034-035-241200-
COLUMBIA BASIN

CITY           SKY/WX    TMP DP  RH WIND       PRES   REMARKS
EPHRATA        CLEAR     69  37  30 N13       29.92R
MOSES LAKE     CLEAR     66  44  45 N12       29.93R
PASCO          CLEAR     65  49  56 NW8       29.89R
RICHLAND ARPT  SUNNY     74  42  31 NW12      29.89R
HERMISTON, OR  PTCLDY    64  56  75 SW3       29.88S
$$

WAZ036>038-241200-
NORTHEAST WASHINGTON

CITY           SKY/WX    TMP DP  RH WIND       PRES   REMARKS
SPOKANE GEIGER CLEAR     64  38  38 N8        29.92R
SPOKANE FELTS  CLEAR     68  41  37 NW7       29.91R
FAIRCHILD AFB  CLEAR     65  35  32 N13       29.92R
COEURDALENE,ID CLEAR     65  43  44 CALM      29.90R
DEER PARK      CLEAR     62  35  36 NW10      29.92R
$$

WAZ029>033-241200-
SOUTHEAST WASHINGTON

CITY           SKY/WX    TMP DP  RH WIND       PRES   REMARKS
PULLMAN        PTCLDY    64  45  49 CALM      29.93R
LEWISTON, ID   PTCLDY    72  47  40 SW6       29.85R
WALLA WALLA    PTCLDY    69  46  43 S8        29.90R
PENDLETON, OR  PTCLDY    69  43  38 CALM      29.92R
$$



USA.gov is the U.S. government's official web portal to all federal, state and local government web resources and services.